This is the latest recevied weather packets stored in our database for station/object W4BOD. If no packets are shown the sender has not sent any weather packets the latest 10 day(s).
| Time | Temp. | Humidity | Pressure | Rain* | Wind** | Luminosity | Snow |
|---|---|---|---|---|---|---|---|
| 1776948708 | 15.56° C | 89% | 1018.3 hPa | 0 mm | - | 58 W/m² | - |
| 1776948405 | 15° C | 91% | 1018.3 hPa | 0 mm | - | 56 W/m² | - |
| 1776948105 | 15° C | 94% | 1018.5 hPa | 0 mm | - | 54 W/m² | - |
| 1776947800 | 14.44° C | 95% | 1018.4 hPa | 0 mm | - | 51 W/m² | - |
| 1776947496 | 14.44° C | 96% | 1018.4 hPa | 0 mm | - | 50 W/m² | - |
| 1776947193 | 13.89° C | 96% | 1018.4 hPa | 0 mm | - | 48 W/m² | - |
| 1776946889 | 13.89° C | 97% | 1018.5 hPa | 0 mm | - | 46 W/m² | - |
| 1776946585 | 13.89° C | 97% | 1018.5 hPa | 0 mm | - | 45 W/m² | - |
| 1776946283 | 13.33° C | 98% | 1018.5 hPa | 0 mm | - | 43 W/m² | - |
| 1776945981 | 13.33° C | 98% | 1018.6 hPa | 0 mm | - | 40 W/m² | - |
| 1776945676 | 13.33° C | 99% | 1018.4 hPa | 0 mm | - | 38 W/m² | - |
| 1776945373 | 13.33° C | 99% | 1018.5 hPa | 0 mm | - | 36 W/m² | - |
| 1776945068 | 13.33° C | 99% | 1018.5 hPa | 0 mm | - | 33 W/m² | - |
| 1776944764 | 12.78° C | 99% | 1018.5 hPa | 0 mm | - | 37 W/m² | - |
| 1776944461 | 12.22° C | 99% | 1018.3 hPa | 0 mm | - | 29 W/m² | - |
| 1776944156 | 12.22° C | 99% | 1018.6 hPa | 0 mm | - | 24 W/m² | - |
| 1776943852 | 12.22° C | 99% | 1018.2 hPa | 0 mm | - | 20 W/m² | - |
| 1776943547 | 11.67° C | 99% | 1018.3 hPa | 0 mm | - | 16 W/m² | - |
| 1776943244 | 12.22° C | 99% | 1018.2 hPa | 0 mm | - | 13 W/m² | - |
| 1776942940 | 11.67° C | 99% | 1018.3 hPa | 0 mm | - | 9 W/m² | - |
| 1776942636 | 11.67° C | 99% | 1018.1 hPa | 0 mm | - | 6 W/m² | - |
| 1776942333 | 11.67° C | 99% | 1018.1 hPa | 0 mm | - | 4 W/m² | - |
| 1776942030 | 11.67° C | 99% | 1018 hPa | 0 mm | - | 2 W/m² | - |
| 1776941727 | 11.67° C | 99% | 1018 hPa | 0 mm | - | 1 W/m² | - |
| 1776941423 | 11.67° C | 99% | 1017.9 hPa | 0 mm | - | 0 W/m² | - |
* Rain latest hour (hover to see other rain measurements)
** Current wind speed in m/s (hover to see current wind gust speed)